Regional Weather Roundup
Issued by NWS

Home | Current Version | Previous Version | Graphics & Text | Print | Product List | Glossary On
Versions: 1 2 3 4 5 6 7 8 9 10 11 12 13 14 15 16 17 18 19 20 21 22 23 24 25 26 27 28 29 30 31 32 33 34 35 36 37 38 39 40 41 42 43 44 45 46 47 48 49 50
088
ASUS43 KIND 300809
RWRIN

WEATHER ROUNDUP FOR INDIANA
NATIONAL WEATHER SERVICE INDIANAPOLIS IN
400 AM EDT SAT APR 30 2016

NOTE: "FAIR" INDICATES FEW OR NO CLOUDS BELOW 12,000 FEET WITH NO
SIGNIFICANT WEATHER AND/OR OBSTRUCTIONS TO VISIBILITY.

* - STATION DOES NOT REPORT WEATHER SUCH AS PRECIPITATION OR FOG.

+ - STATION NOT QUALITY CONTROLLED BY THE NATIONAL WEATHER SERVICE.
    USE DATA WITH CAUTION...ESPECIALLY DEWPOINT AND RELATIVE
    HUMIDITY OBSERVATIONS.

INZ001>003-010>013-019-020-300900-
NORTHWEST INDIANA

CITY           SKY/WX    TMP DP  RH WIND       PRES   REMARKS
GARY /AIRPORT/ PTCLDY    47  47 100 NE7       30.06F
KNOX *+        PTCLDY    43  41  93 E7        30.05F
LA PORTE +     CLOUDY    47  47 100 E8        30.07S
MICHIGAN CITY+ MOCLDY    43  43 100 E3        30.07S
MONTICELLO +   PTCLDY    48  43  82 E6        30.01F
RENSSELAER +   CLOUDY    45  45 100 NE8       30.03F FOG
VALPARAISO     CLOUDY    45  42  89 NE9       30.05F FOG

$$

LMZ046-743>745-300900-
SOUTHERN LAKE MICHIGAN

STATION/POSITION TIME  TEMP    WIND        PRES    WAVE
                       AIR SEA DIR/SP/G            HT
                 (UTC) (F)     (DEG/KT/KT) (MB)    (FT)
BURNS HARBOR     0701   47      70/ 12/ 13 1018.3F
MICHIGAN CITY    0700   46      40/ 10/ 11   N/A

$$

INZ004-005-014>016-021>024-300900-
NORTH CENTRAL INDIANA

CITY           SKY/WX    TMP DP  RH WIND       PRES   REMARKS
GOSHEN         CLEAR     43  40  89 E6        30.08S FOG
LOGANSPORT +   MOCLDY    46  45  93 E8        30.04F
PERU/GRISSOM   CLOUDY    49  47  93 E13       30.02F
ROCHESTER +    CLEAR     46  45  93 E10       30.05F
SOUTH BEND     PTCLDY    46  41  82 E8        30.07F
WARSAW +       CLEAR     43  41  93 E7        30.08R FOG

$$

INZ006>009-017-018-025>027-300900-
NORTHEAST INDIANA

CITY           SKY/WX    TMP DP  RH WIND       PRES   REMARKS
ANGOLA *+      CLEAR     43  30  61 E9        30.09F
AUBURN +       CLEAR     41  37  87 E5        30.10R
FORT WAYNE     PTCLDY    43  40  89 E8        30.09S
HUNTINGTON +   CLEAR    N/A N/A N/A E6        30.06F

$$

INZ028-029-035-036-043>045-051>053-300900-
WEST CENTRAL INDIANA

CITY           SKY/WX    TMP DP  RH WIND       PRES   REMARKS
CRAWFORDSVL +  CLOUDY    50  48  92 E13       29.98F
GREENCASTLE +  MOCLDY    52  50  93 E10       29.99S
LAFAYETTE      PTCLDY    50  45  83 E10       30.01F
TERRE HAUTE    CLOUDY    56  49  77 E9        29.97S

$$

INZ030>032-037>040-046>048-054>057-064-065-300900-
CENTRAL INDIANA

CITY           SKY/WX    TMP DP  RH WIND       PRES   REMARKS
CP ATTERBURY + CLOUDY    54  46  76 E9        30.02R
FISHERS *+     CLOUDY    50  48  93 E7        30.01F
FRANKFORT +      N/A     50  40  68 E9G16     30.02S
GREENWOOD *+   PTCLDY    52  46  82 E7        30.01S
INDIANAPOLIS   CLOUDY    52  46  80 E13       29.98F
-EAGLE CREEK   CLOUDY    52  46  80 E9        29.99F
KOKOMO *+      CLOUDY    48  43  81 E12       30.02F
MARION +       MOCLDY    47  44  88 E9        30.04F
SHELBYVILLE    PTCLDY    53  47  79 E9        30.00S
ZIONSVILLE +   MOCLDY    49  46  87 E10       30.01F

$$

INZ033-034-041-042-049-050-058-059-300900-
EAST CENTRAL INDIANA

CITY           SKY/WX    TMP DP  RH WIND       PRES   REMARKS
MUNCIE         CLOUDY    50  44  80 E10       30.03F

$$

INZ060-061-067>069-081>083-085>088-300900-
SOUTHWEST INDIANA

CITY           SKY/WX    TMP DP  RH WIND       PRES   REMARKS
EVANSVILLE     CLOUDY    62  53  72 E6        29.91F
HUNTINGBURG *+ CLOUDY    61  52  72 E12       29.93F
WASHINGTON +   RAIN      59  54  84 E7        29.94R

$$

INZ062-063-066-070>080-084-089>092-300900-
SOUTH CENTRAL AND SOUTHEAST INDIANA

CITY           SKY/WX    TMP DP  RH WIND       PRES   REMARKS
BEDFORD +      CLOUDY    57  57 100 NE10      29.95F
BLOOMINGTON    LGT RAIN  57  50  77 E10       29.97F
MADISON *+     CLOUDY    57  48  72 E7        30.03S
NORTH VERNON + CLOUDY    57  54  88 CALM      30.02R
SEYMOUR +      MOCLDY    59  50  72 E8        30.00F

$$





USA.gov is the U.S. government's official web portal to all federal, state and local government web resources and services.